Regional Weather Roundup
Issued by NWS Albany, NY

Home | Current Version | Previous Version | Graphics & Text | Print | Product List | Glossary Off
Versions: 1 2 3 4 5 6 7 8 9 10 11 12 13 14 15 16 17 18 19 20 21 22 23 24 25 26 27 28 29 30 31 32 33 34 35 36 37 38 39 40 41 42 43 44 45 46 47 48 49 50

000
ASUS41 KALY 181610
RWRALY

NEW YORK STATE HOURLY WEATHER ROUNDUP
NATIONAL WEATHER SERVICE ALBANY NY
1200 PM EDT THU SEP 18 2014

NOTE: "FAIR" INDICATES FEW OR NO CLOUDS BELOW 12,000 FEET WITH NO
SIGNIFICANT WEATHER AND/OR NO OBSTRUCTIONS TO VISIBILITY.

NYZ032-033-038>043-046>054-057>066-NYZ062>081-181700-
EAST


CITY           SKY/WX    TMP DP  RH WIND       PRES   REMARKS
ALBANY         PTSUNNY   65  51  60 W3        30.02F
GLENS FALLS    CLOUDY    61  50  67 NE6       30.02S
POUGHKEEPSIE   SUNNY     69  50  50 VRB3      30.00F
NEWBURGH       MOSUNNY   66  52  59 CALM      30.03S
MONTGOMERY     MOSUNNY   70  48  45 VRB3      30.01S
WHITE PLAINS   MOSUNNY   72  44  36 NW10      30.00F
ISLIP          MOSUNNY   72  46  39 VRB3      29.98F
NEW YORK CITY  MOSUNNY   72  47  40 NW3       30.00F
CENTRAL PARK   SUNNY     72  47  40 CALM      30.03F
$$

NYZ005>009-017-018-044>046-055-056-181700-
CENTRAL


CITY           SKY/WX    TMP DP  RH WIND       PRES   REMARKS
FULTON         CLOUDY    55  48  77 N14G22    30.07S
SYRACUSE       CLOUDY    59  53  80 NW8       30.06R
ROME           PTSUNNY   60  51  72 CALM      30.05S
ELMIRA         CLOUDY    62  52  69 SE3       30.05S
BINGHAMTON     SUNNY     62  50  64 VRB6      30.05S
MONTICELLO     MOSUNNY   64  45  48 N5        30.05S
$$

NYZ026>034-041>043-181700-
NORTH


CITY           SKY/WX    TMP DP  RH WIND       PRES   REMARKS
WATERTOWN      CLOUDY    51  41  68 NE10      30.12R
FORT DRUM      NOT AVBL
MASSENA        PTSUNNY   52  38  58 VRB3      30.13R
SARANAC LAKE   CLOUDY    48  42  80 N7        30.04S
PLATTSBURGH    CLOUDY    49  41  74 N13       30.08S
$$

NYZ001>004-010>016-019>021-181700-
WEST


CITY           SKY/WX    TMP DP  RH WIND       PRES   REMARKS
NIAGARA FALLS  LGT RAIN  53  51  93 N16       30.11S FOG
BUFFALO        PTSUNNY   56  52  86 N15       30.10R
DUNKIRK        PTSUNNY   62  53  72 N8        30.10R
JAMESTOWN      SUNNY     57  48  72 NW7       30.09S
WELLSVILLE     MOSUNNY   60  47  61 VRB3      30.09S
ROCHESTER      CLOUDY    53  50  89 NE16      30.11R
PENN YAN       PTSUNNY   64  51  62 NW6       30.06S
$$

             KEY
       WCI = WIND CHILL INDEX
       VSB = VISIBILITY
       HX  = HEAT INDEX
$$



USA.gov is the U.S. government's official web portal to all federal, state and local government web resources and services.